www.pogodaiklimat.ru

Погода и климат >> Архив погоды >> Россия >> Хабаровский край >> Литке


АРХИВ ПОГОДЫ в Литке

Время (UTC), дата Ветер
(напр.,м/с)
 
Видим.   Явления Облачность Т
(С)
Тd
(С)
f
(%)
Тe
(С)
Тes
(С)
Комфортность P
(гПа)
Po
(гПа)
Тmin
(С)
Tmax
(С)
R
(мм)
R24
(мм)
S
(см)
09 15.08 СЗ 1 50 км 8/8 600 м
[Cb cap]
+15.2 +13.2 88 +16 +16 1014.3 1012.0 +15.9
12 15.08 СЗ 1 50 км 8/8 600 м
[Cb cap]
+13.1 +12.0 93 +13 +13 1014.3 1012.0
15 15.08 В 2 50 км 7 баллов +13.3 +12.0 92 +13 +13 1015.6 1013.3
18 15.08 штиль 0 50 км 8/8 600 м
[Sc]
+12.8 +11.5 92 +12 +12 1015.6 1013.3
21 15.08 СЗ 1 50 км 10/10 600 м
[Sc]
+12.9 +11.4 91 +13 +13 1015.2 1013.0 +12.7
00 16.08 С 1 50 км 10/10 600 м
[St]
+13.3 +11.9 91 +13 +13 1017.0 1014.7
03 16.08 ЮВ 1 50 км 10/10 600 м
[St]
+13.3 +11.9 91 +13 +13 1017.0 1014.7
06 16.08 ЮВ 1 50 км 8/3 600 м
[Cb cap Ac As]
+15.0 +12.0 82 +16 +18 1017.0 1014.7
09 16.08 Ю 1 50 км 9/6 600 м
[Cb cap Ac lent]
+13.2 +10.9 86 +13 +13 1016.4 1014.2 +15.0
12 16.08 н/о +9.8 1017.3 1015.0
15 16.08 ЮВ 3 50 км 10/10 600 м
[Sc]
+11.5 +9.7 89 +10 +10 1018.3 1016.0
18 16.08 Ю 1 50 км 10/10 600 м
[Sc]
+11.6 +9.8 89 +11 +11 1017.0 1014.7
21 16.08 ЮВ 1 50 км 9/9 600 м
[Sc]
+12.4 +9.2 81 +12 +13 1014.0 +11.3
00 17.08 ЮВ 2 50 км 9/0
[Ac lent Cs]
+14.0 +8.8 71 +14 +14 1017.0 1014.7
03 17.08 С 2 50 км 10/0
[Ac As]
+13.8 +9.4 75 +13 +13 1017.0 1014.7
06 17.08 СЗ 3 50 км 9/6 600 м
[Cb cap Ci fib]
+12.8 +10.5 86 +11 +12 1015.6 1013.3
09 17.08 СЗ 3 50 км 10/4 600 м
[Frnb As op]
+12.1 +10.2 88 +10 +10 1014.1 1011.9 +14.0
12 17.08 С 1 50 км 10/0
[As trans]
+12.2 +9.8 85 +12 +12 1015.6 1013.3
15 17.08 З 1 50 км 10/0
[As trans]
+11.4 +9.0 85 +11 +11 1015.6 1013.3
18 17.08 Ю 1 50 км 10/0
[As trans]
+11.3 +9.0 86 +11 +11 1015.6 1013.3
21 17.08 В 1 50 км 10/0
[As trans]
+11.9 +9.1 83 +12 +12 1014.3 1012.1 +11.1
00 18.08 ЮВ 1 50 км 10/5 600 м
[Sc As op]
+12.6 +9.6 82 +13 +13 1015.6 1013.3
03 18.08 Ю 2 50 км 10/4 600 м
[Sc As trans]
+12.4 +9.9 85 +11 +11 1015.6 1013.3
06 18.08 штиль 0 50 км 10/3 600 м
[Frnb Ac As]
+13.1 +10.5 84 +13 +13 1015.6 1013.3
09 18.08 ЮЗ 1 50 км 10/3 600 м
[Frnb Ac As]
+12.6 +10.1 85 1014.6 +13.3
12 18.08 В 5 50 км 10 баллов +12.0 +9.7 86 +10 +10 1017.0 1014.7
15 18.08 ЮВ 2 50 км 10/3 600 м
[Frnb Ac As]
+11.7 +9.8 88 +11 +11 1017.0 1014.7
18 18.08 В 4 50 км 10/3 600 м
[Frnb Ac As]
+11.2 +9.9 92 +9 +9 1017.0 1014.7
21 18.08 В 2 50 км 10/0
[As trans]
+11.3 +10.1 92 +10 +10 1016.5 1014.3 +11.0
00 19.08 В 3 50 км 10/10 600 м
[Cb cap]
+12.1 +9.8 86 +10 +10 1018.3 1016.0
03 19.08 В 1 50 км 10/10 600 м
[Sc]
+13.4 +10.4 82 +14 +14 1018.3 1016.0
06 19.08 В 2 50 км 10/4 600 м
[Sc Ac trans]
+13.1 +9.9 81 +12 +12 1018.3 1016.0
09 19.08 ЮВ 2 50 км 10/4 600 м
[Frnb As op]
+13.2 +10.4 83 +12 +12 1018.3 1016.0 +13.7
12 19.08 СЗ 3 20 км слаб. дождь 10/0
[As op]
+11.7 +10.1 90 +10 +10 1016.8 1014.6
15 19.08 СЗ 3 10 км слаб. дождь 10/0
[As op]
+12.0 +10.9 93 +10 +10 1017.0 1014.7
18 19.08 ЮЗ 3 10 км слаб. дождь 10/0
[As op]
+12.6 +11.3 92 +11 +11 1017.0 1014.7
21 19.08 ЮВ 3 50 км {дождь} 10/0
[As op]
+12.6 +11.5 93 +11 +11 1016.2 1014.0 +11.2 14
00 20.08 Ю 2 50 км {дождь} 10/0
[As op]
+12.9 +11.6 92 +12 +14 1016.2 1014.0
03 20.08 Ю 1 50 км 10 баллов +13.2 +11.8 91 +13 +13 1017.0 1014.7
06 20.08 Ю 1 50 км 10/0
[As op]
+13.2 +11.8 91 +13 +13 1018.3 1016.0
09 20.08 {дождь} н/о +11.9 1016.9 1014.7 +13.4 2
12 20.08 Ю 1 50 км 10 баллов +12.7 +11.4 92 +13 +13 1018.3 1016.0
15 20.08 Ю 2 20 км слаб. дождь 10 баллов +12.4 +11.1 92 +11 +11 1018.3 1016.0
21 20.08 ЮВ 5 50 км 9/3 600 м
[Sc As trans]
+11.7 +10.1 90 +9 +9 1018.5 1016.3 +11.6 2
00 21.08 ЮВ 4 50 км 10 баллов +11.9 +10.0 88 +10 +10 1019.6 1017.3
03 21.08 ЮВ 4 50 км 10 баллов +12.3 +10.4 88 +10 +10 1019.6 1017.3
06 21.08 Ю 2 50 км 9 баллов +13.3 +11.0 86 +13 +13 1019.6 1017.3
09 21.08 В 4 50 км 9/9 600 м
[Cb cap]
+13.1 +10.8 86 +11 +11 1018.4 1016.1 +13.5
12 21.08 Ю 4 50 км 9 баллов +12.6 +10.5 87 +11 +11 1019.6 1017.3
15 21.08 Ю 4 50 км 10 баллов +11.6 +9.7 88 +9 +9 1019.6 1017.3
18 21.08 ЮВ 5 50 км 6 баллов +11.0 +8.9 87 +8 +8 1019.6 1017.3
21 21.08 ЮВ 5 50 км 10/10 600 м
[Sc]
+10.6 +9.0 90 +8 +8 1018.7 1016.4 +10.6
00 22.08 ЮВ 5 50 км 10 баллов +11.2 +9.5 89 +8 +8 1019.6 1017.3
03 22.08 ЮВ 3 50 км 10 баллов +12.1 +10.0 87 +10 +10 1019.6 1017.3
06 22.08 Ю 3 50 км 9 баллов +13.0 +10.4 84 +12 +12 1018.3 1016.0

 

Местоположение метеостанции Литке (Хабаровский край, Россия): широта 53.95 долгота 140.30 высота над уровнем моря 19 м.

В архиве по умолчанию представлена погода в Литке за последнюю неделю. Архивные данные за месяц целиком и за предыдущие месяцы, начиная с января 2011 года, Вы можете получить, выбрав интересующий диапазон дат из раскрывающегося списка и нажав кнопку "Ввод!".


*Определитесь, кто Вы:
робот инопланетянин человек

Внимание! Время в таблицах - всемирное. Для получения местного времени необходимо прибавить поправку, которая равна 10 ч.

Смотрите также архив погоды в соседних городах и на ближайших метеорологических станциях:

Погода в Николаевск-на-Амуре (Хабаровский край, Россия) (93 км)
Погода в Байдукове (Хабаровский край, Россия) (102 км)
Погода в Москальво (Сахалинская область, Россия) (151 км)
Погода в Удинске (Хабаровский край, Россия) (152 км)
Погода в Джаоре (Хабаровский край, Россия) (154 км)
Погода в Ныврово (Сахалинская область, Россия) (156 км)
Погода в Богородском (Хабаровский край, Россия) (175 км)
Погода в Оха (Сахалинская область, Россия) (178 км)
Погода в Одопту (Сахалинская область, Россия) (201 км)
Погода в Большом Шантаре (Хабаровский край, Россия) (206 км)

Пояснения к столбцам:

Ветер - указаны скорость ветра в м/с - средняя за 10 мин, порывы в срок и между сроками (в фигурных скобках) и направление, откуда дует ветер: С - северный, СВ - северо-восточный, В - восточный, ЮВ - юго-восточный, Ю - южный, ЮЗ - юго-западный, З - западный, СЗ - северо-западный.
Видимость - горизонтальная дальность видимости в метрах или километрах. При видимости от 1 до 10 км при отсутствии осадков обычно наблюдается дымка, при ухудшении видимости до 1 км и менее - туман. В сухую погоду видимость может ухудшаться дымом, пылью или мглою.
Явления - указаны атмосферные явления, наблюдавшиеся в срок или в последний час перед сроком; фигурными скобками обозначены явления, наблюдавшиеся между сроками (за 1-3 часа до срока); квадратными скобками обозначены град или гололедные отложения с указанием их диаметра в мм.
Облачность - указаны через наклонную черту общая и нижняя облачность в баллах и высота нижней границы облаков в метрах; квадратными скобками обозначены формы облаков: Ci - перистые, Cs - перисто-слоистые, Cc - перисто-кучевые, Ac - высококучевые, As - высокослоистые, Sc - слоисто-кучевые, Ns - слоисто-дождевые, Cu - кучевые, Cb - кучево-дождевые. Подробнее классификацию облаков см. в Атласе облаков (PDF).
T - Температура воздуха - температура, измеренная на высоте 2 м над землей.
Td - Температура точки росы - температура, при понижении до которой содержащийся в воздухе водяной пар достигнет насыщения.
f - Относительная влажность воздуха - влажноcть воздуха, измеренная на высоте 2 м над землей.
Te - Эффективная температура - температура, которую ощущает одетый по сезону человек в тени. Характеристика душности погоды. При расчете учитывается влияние влажности воздуха и скорости ветра на теплоощущения человека.
Tes - Эффективная температура на солнце - температура, которую ощущает человек, с поправкой на солнечный нагрев. Характеристика знойности погоды. Зависит от высоты солнца над горизонтом, облачности и скорости ветра. Ночью, в пасмурную погоду, а также при ветре 12 м/с и более поправка равна нулю.
P - Атмосферное давление - приведенное к уровню моря атмосферное давление.
Po - Атмосферное давление - измеренное на уровне метеостанции атмосферное давление.
Tmin - Минимальная температура - минимум температуры воздуха на высоте 2 м над землей.
Tmax - Максимальная температура - максимум температуры воздуха на высоте 2 м над землей.
R - Количество осадков - Количество выпавших осадков за период времени, мм. При наведении курсора мыши на число - период времени, за который выпало указанное количество осадков.
R24 - Количество осадков - Количество выпавших осадков за 24 часа, мм.
S - Снежный покров - Высота снежного покрова, см. При наведении курсора мыши на число - состояние снежного покрова и степень покрытия местности в баллах.